Regional Weather Roundup
Issued by NWS

Home | Current Version | Previous Version | Text Only | Print | Product List | Glossary Off
Versions: 1 2 3 4 5 6 7 8 9 10 11 12 13 14 15 16 17 18 19 20 21 22 23 24 25 26 27 28 29 30 31 32 33 34 35 36 37 38 39 40 41 42 43 44 45 46 47 48 49 50

110
ASUS43 KMKX 100300
RWRWI

WISCONSIN REGIONAL WEATHER ROUNDUP
NATIONAL WEATHER SERVICE MILWAUKEE/SULLIVAN WI
900 PM CST FRI DEC 09 2016

NOTE: "FAIR" INDICATES FEW OR NO CLOUDS BELOW 12,000 FEET WITH NO
SIGNIFICANT WEATHER AND/OR OBSTRUCTIONS TO VISIBILITY.

WIZ001-002-006>008-014>016-023>028-100400-
NORTHWEST WISCONSIN

CITY           SKY/WX    TMP DP  RH WIND       PRES   REMARKS
SUPERIOR ARPT  CLOUDY    11   2  68 NW7       30.49S WCI   0
ASHLAND        LGT SNOW  11   6  81 W5        30.46S WCI   3
HAYWARD        CLOUDY    11   2  67 VRB3      30.42S
SIREN          CLOUDY    13   5  70 NW6       30.45F WCI   4
CUMBERLAND     CLOUDY    12   3  67 W6        30.42F WCI   3
RICE LAKE      CLOUDY    14   6  70 W7        30.45F WCI   4
CHETEK         CLOUDY    15   6  69 NW5       30.44F WCI   7
LADYSMITH      CLOUDY    15   8  75 W10       30.42F WCI   2
EAU CLAIRE     NOT AVBL
MENOMONIE      CLOUDY    17   9  71 W9        30.46F WCI   5
NEW RICHMOND   CLOUDY    14   5  67 W8        30.46S WCI   3
OSCEOLA        CLOUDY    15   7  72 W8        30.50S WCI   4
$$

WIZ003>005-009-010-017-018-100400-
NORTH CENTRAL WISCONSIN

CITY           SKY/WX    TMP DP  RH WIND       PRES   REMARKS
MANITOWISH WTR CLOUDY     9   4  80 NW8       30.35F WCI  -4
ARBOR VITAE    CLOUDY    14   6  71 NW10      30.34S WCI   1
WOODRUFF       CLOUDY    14   6  71 NW10      30.34S WCI   1
RHINELANDER    CLOUDY    14   7  73 NW5       30.35S WCI   6
EAGLE RIVER    CLOUDY    13   3  65 W12G17    30.33S WCI  -1
LAND O LAKES   CLOUDY    12   6  76 NW5       30.34F WCI   4
PHILLIPS       CLOUDY    12   6  77 NW3       30.37S
TOMAHAWK       LGT SNOW  14  11  87 CALM      30.37S
MEDFORD        LGT SNOW  13   9  84 W6        30.38S WCI   4
MERRILL        CLOUDY    15   9  76 W7        30.39S WCI   6
$$

WIZ029-030-035-036-043>047-100400-
CENTRAL WISCONSIN

CITY           SKY/WX    TMP DP  RH WIND       PRES   REMARKS
WAUSAU         FLURRIES  15   8  73 W8        30.39F WCI   4
MOSINEE        LGT SNOW  16  10  79 W9        30.41F WCI   4
MARSHFIELD     CLOUDY    15   7  70 W8        30.40F WCI   4
STEVENS POINT  CLOUDY    15   8  71 SW5       30.43S WCI   8
WAUPACA        CLOUDY    20  11  69 CALM      30.45S
WAUTOMA        CLOUDY    15  11  83 CALM      30.45F
WISC RAPIDS    CLOUDY    17  11  77 W6        30.44F WCI   9
CAMP DOUGLAS   NOT AVBL
$$

WIZ011>013-019>022-031-037>040-048>050-100400-
NORTHEAST WISCONSIN

CITY           SKY/WX    TMP DP  RH WIND       PRES   REMARKS
ANTIGO         FLURRIES  14  10  82 W9        30.36S WCI   2
SHAWANO        CLOUDY    21  10  64 W5        30.43S WCI  14
OCONTO         CLOUDY    18   5  56 CALM      30.43F
STURGEON BAY   CLOUDY    20   7  57 NW14G20   30.41S WCI   7
GREEN BAY      CLEAR     19  10  68 W6        30.44S WCI  11
MANITOWOC      NOT AVBL
APPLETON       MOCLDY    18   9  68 W5        30.42S WCI  11
CLINTONVILLE   CLEAR     18   9  68 W3        30.43F
OSHKOSH        CLOUDY    17   8  67 W3        30.44F
$$

WIZ032>034-041-042-053>061-100400-
SOUTHWEST WISCONSIN

CITY           SKY/WX    TMP DP  RH WIND       PRES   REMARKS
LA CROSSE      CLOUDY    19  11  70 W12       30.50S WCI   7
SPARTA         PTCLDY    17  12  78 W5        30.48S WCI  10
VIROQUA        CLOUDY    14  10  85 W6        30.45S WCI   5
BOSCOBEL       CLOUDY    19  11  70 VRB5      30.51F WCI  12
PRAIRIE DU CHI CLOUDY    18  11  72 W5        30.52F WCI  11
PLATTEVILLE    CLEAR     17  15  91 W8        30.49S WCI   6
$$

WIZ056-057-062-063-064-067-068-100400-
SOUTH CENTRAL WISCONSIN

CITY           SKY/WX    TMP DP  RH WIND       PRES   REMARKS
REEDSBURG      PTCLDY    17  10  74 W5        30.46F WCI  10
BARABOO/DELLS  PTCLDY    18  10  71 W5        30.45S WCI  11
LONE ROCK      NOT AVBL
MINERAL POINT  PTCLDY    19  14  79 W8        30.46S WCI   9
MADISON        CLOUDY    19  10  68 VRB7      30.46F WCI  10
MIDDLETON      MOCLDY    19  13  76 W8        30.47S WCI   9
WATERTOWN      CLEAR     17  13  82 SW5       30.46F WCI  10
MONROE         CLEAR     18  12  79 W10       30.46F WCI   6
JANESVILLE     MOCLDY    19  12  73 W6        30.48F WCI  11
$$

WIZ051-052-058>065-066-070>072-100400-
SOUTHEAST WISCONSIN

CITY           SKY/WX    TMP DP  RH WIND       PRES   REMARKS
MILWAUKEE      MOCLDY    21  11  65 SW7       30.47F WCI  12
WAUKESHA       CLEAR     16  10  79 CALM      30.47F
MILWAUKEE/TIMM PTCLDY    19  10  68 SW8       30.47F WCI   9
RACINE         MOCLDY    20  12  71 W7        30.49F WCI  11
BURLINGTON     CLEAR     23  19  84 CALM      30.48F
KENOSHA        PTCLDY    18  12  77 W5        30.48F WCI  11
FOND DU LAC    CLOUDY    18   8  65 CALM      30.45F
SHEBOYGAN      CLOUDY    19  10  68 SW5       30.44F WCI  12
WEST BEND      CLOUDY    18  10  73 CALM      30.45S
JUNEAU         MOCLDY    13   8  77 SW3       30.46F
$$

LSZ147-162-100400-
LAKE SUPERIOR

STATION/POSITION TIME  TEMP    WIND        PRES    WAVE
                       AIR SEA DIR/SP/G            HT/PER
                 (UTC) (F)     (DEG/KT/KT) (MB)    (FT/S)
DEVILS ISLAND    0200   11     290/ 15/ 18 1032.9F
PORT WING        0230   13     310/ 16/ 23 1031.8F
SAXON HARBOR     0230   13     230/  6/  9 1031.2S
$$

LMZ867-665-643>646-100400-
LAKE MICHIGAN

STATION/POSITION TIME  TEMP    WIND        PRES    WAVE
                       AIR SEA DIR/SP/G            HT/PER
                 (UTC) (F)     (DEG/KT/KT) (MB)    (FT/S)
CHAMBERS ISLAND  0240   20     240/  6/ 13 1029.1R
NORTHPORT PIER   0240   23     280/  9/ 18 1028.8S
SISTER BAY       0220   23     310/ 20/ 22   N/A
ALGOMA LAKESHORE 0221          320/ 10/ 16   N/A
KEWAUNEE LAKESHO 0230   21     320/  5/ 13 1029.7S
SHEBOYGAN LAKESH 0200   21     280/  7/  9 1032.4S
PORT WASHINGTON  0240   19     260/  4/  6 1032.5F
KENOSHA   LAKESH 0200   22     270/ 10/ 12 1032.5
$$

TC  - TEMPERATURE IN CELSIUS
VSB - VISIBILITY IN STATUTE MILES
WCI - WIND CHILL INDEX
HX  - HEAT INDEX





USA.gov is the U.S. government's official web portal to all federal, state and local government web resources and services.